This is the latest recevied weather packets stored in our database for station/object AE5HO. If no packets are shown the sender has not sent any weather packets the latest 10 day(s).
| Time | Temp. | Humidity | Pressure | Rain* | Wind** | Luminosity | Snow |
|---|---|---|---|---|---|---|---|
| 1787667585 | 28.89° C | 61% | 1017.8 hPa | 0 mm | - | 32 W/m² | - |
| 1787667282 | 28.89° C | 60% | 1017.7 hPa | 0 mm | - | 34 W/m² | - |
| 1787666980 | 28.89° C | 60% | 1017.8 hPa | 0 mm | - | 31 W/m² | - |
| 1787666677 | 28.89° C | 59% | 1017.8 hPa | 0 mm | - | 31 W/m² | - |
| 1787666376 | 28.89° C | 60% | 1017.9 hPa | 0 mm | - | 32 W/m² | - |
| 1787666073 | 28.89° C | 59% | 1017.8 hPa | 0 mm | - | 29 W/m² | - |
| 1787665772 | 28.89° C | 61% | 1017.7 hPa | 0 mm | - | 20 W/m² | - |
| 1787665467 | 28.89° C | 61% | 1017.5 hPa | 0 mm | - | 10 W/m² | - |
| 1787665167 | 28.89° C | 61% | 1017.3 hPa | 0 mm | - | 9 W/m² | - |
| 1787664865 | 28.89° C | 61% | 1017 hPa | 0 mm | - | 9 W/m² | - |
| 1787664565 | 28.89° C | 60% | 1017.1 hPa | 0 mm | - | 9 W/m² | - |
| 1787664260 | 28.89° C | 61% | 1017.5 hPa | 0 mm | - | 9 W/m² | - |
| 1787663959 | 28.33° C | 60% | 1017.6 hPa | 0 mm | - | 9 W/m² | - |
| 1787663654 | 28.33° C | 61% | 1017.6 hPa | 0 mm | - | 7 W/m² | - |
| 1787663350 | 28.33° C | 61% | 1017.6 hPa | 0 mm | - | 5 W/m² | - |
| 1787663046 | 27.78° C | 64% | 1017.6 hPa | 0 mm | - | 2 W/m² | - |
| 1787662746 | 27.78° C | 65% | 1017.8 hPa | 0 mm | - | 1 W/m² | - |
| 1787662440 | 27.78° C | 65% | 1018 hPa | 0 mm | - | 0 W/m² | - |
| 1787662136 | 27.78° C | 65% | 1018.3 hPa | 0 mm | - | 0 W/m² | - |
| 1787661832 | 28.33° C | 64% | 1018.1 hPa | 0 mm | - | 0 W/m² | - |
| 1787661531 | 28.33° C | 63% | 1018.1 hPa | 0 mm | - | 0 W/m² | - |
| 1787661230 | 28.33° C | 60% | 1017.8 hPa | 0 mm | - | 0 W/m² | - |
| 1787660929 | 28.33° C | 61% | 1017.8 hPa | 0 mm | - | 0 W/m² | - |
| 1787660624 | 28.33° C | 61% | 1017.6 hPa | 0 mm | - | 0 W/m² | - |
| 1787660320 | 28.33° C | 60% | 1017.4 hPa | 0 mm | - | 0 W/m² | - |
* Rain latest hour (hover to see other rain measurements)
** Current wind speed in m/s (hover to see current wind gust speed)